Location: Alfords
(31.4624°N, 83.9238°W)
Time: 10:58:29
(UTC+00:00)

ISS - Pass Details

Date: 17 September 2021
Orbit: 417 x 423 km, 51.6° (Epoch: 26 October)

Event Time Altitude Azimuth Distance (km) Brightness Sun altitude
Rises 00:53:34 0° 244° (WSW) 2,347 0.9 -16.4°
Reaches altitude 10° 00:55:47 10° 255° (WSW) 1,488 0.0 -16.9°
Maximum altitude 00:58:49 32° 320° (NW) 746 -2.0 -17.5°
Drops below altitude 10° 01:01:47 11° 25° (NNE) 1,462 -1.1 -18.1°
Enters shadow 01:01:52 10° 25° (NNE) 1,495 -1.1 -18.1°
